| time (UTC) | temp F | wind direction | speed MPH | gust MPH | rain 1hr in | rain 24hr in | rain mn in | humidity % | barometer mb |
| 20260507101512 | 66 | 245 | 0.0 | 0.0 | 0.00 | 0.00 | 0.00 | 93 | 1011.7 |
| 20260507101330 | 67 | 245 | 0.0 | 0.0 | 0.00 | 0.00 | 0.00 | 93 | 1011.8 |
| 20260507100830 | 67 | 245 | 0.0 | 0.0 | 0.00 | 0.00 | 0.00 | 93 | 1011.8 |
| 20260507100331 | 67 | 245 | 0.0 | 0.0 | 0.00 | 0.00 | 0.00 | 93 | 1011.8 |
| 20260507100115 | 66 | 245 | 0.0 | 0.0 | 0.00 | 0.00 | 0.00 | 93 | 1012.0 |
| 20260507100044 | 66 | 245 | 0.0 | 0.0 | 0.00 | 0.00 | 0.00 | 93 | 1011.9 |
| 20260507095330 | 66 | 245 | 0.0 | 0.0 | 0.00 | 0.00 | 0.00 | 93 | 1012.0 |
| 20260507094831 | 67 | 245 | 0.0 | 0.0 | 0.00 | 0.00 | 0.00 | 93 | 1012.0 |
| 20260507094614 | 67 | 245 | 0.0 | 0.0 | 0.00 | 0.00 | 0.00 | 93 | 1011.7 |
| 20260507094544 | 66 | 245 | 0.0 | 0.0 | 0.00 | 0.00 | 0.00 | 93 | 1011.6 |
| 20260507093831 | 67 | 245 | 0.0 | 0.0 | 0.00 | 0.00 | 0.00 | 93 | 1011.7 |
| 20260507093411 | 67 | 245 | 0.0 | 0.0 | 0.00 | 0.00 | 0.00 | 93 | 1011.6 |
| 20260507093402 | 67 | 245 | 0.0 | 0.0 | 0.00 | 0.00 | 0.00 | 93 | 1011.7 |
| 20260507093051 | 66 | 245 | 0.0 | 0.0 | 0.00 | 0.00 | 0.00 | 93 | 1011.5 |
| 20260507092329 | 67 | 245 | 0.0 | 0.0 | 0.00 | 0.00 | 0.00 | 92 | 1011.6 |
| 20260507091851 | 67 | 245 | 0.0 | 0.0 | 0.00 | 0.00 | 0.00 | 92 | 1011.5 |
| 20260507091843 | 67 | 245 | 0.0 | 0.0 | 0.00 | 0.00 | 0.00 | 92 | 1011.6 |
| 20260507091538 | 67 | 245 | 0.0 | 0.0 | 0.00 | 0.00 | 0.00 | 92 | 1011.4 |
| 20260507090814 | 67 | 245 | 0.0 | 0.0 | 0.00 | 0.00 | 0.00 | 92 | 1011.5 |
| 20260507090557 | 67 | 245 | 0.0 | 0.0 | 0.00 | 0.00 | 0.00 | 92 | 1011.5 |
| 20260507090004 | 67 | 245 | 0.0 | 0.0 | 0.00 | 0.00 | 0.00 | 92 | 1011.3 |
| 20260507085813 | 67 | 245 | 0.0 | 0.0 | 0.00 | 0.00 | 0.00 | 92 | 1011.4 |
| 20260507085313 | 68 | 245 | 0.0 | 0.0 | 0.00 | 0.00 | 0.00 | 92 | 1011.4 |
| 20260507084813 | 68 | 245 | 0.0 | 0.0 | 0.00 | 0.00 | 0.00 | 92 | 1011.4 |
| 20260507084507 | 67 | 245 | 0.0 | 0.0 | 0.00 | 0.00 | 0.00 | 92 | 1011.1 |
| 20260507084310 | 68 | 245 | 0.0 | 0.0 | 0.00 | 0.00 | 0.00 | 92 | 1011.3 |
| 20260507083809 | 68 | 245 | 0.0 | 0.0 | 0.00 | 0.00 | 0.00 | 92 | 1011.3 |
| 20260507083307 | 68 | 245 | 0.0 | 0.0 | 0.00 | 0.00 | 0.00 | 92 | 1011.3 |
| 20260507083043 | 68 | 245 | 0.0 | 0.0 | 0.00 | 0.00 | 0.00 | 92 | 1011.2 |
| 20260507082804 | 68 | 245 | 0.0 | 0.0 | 0.00 | 0.00 | 0.00 | 92 | 1011.4 |
| 20260507082306 | 68 | 245 | 0.0 | 0.0 | 0.00 | 0.00 | 0.00 | 92 | 1011.4 |
| 20260507081803 | 68 | 245 | 0.0 | 0.0 | 0.00 | 0.00 | 0.00 | 92 | 1011.4 |
| 20260507081549 | 68 | 245 | 0.0 | 0.0 | 0.00 | 0.00 | 0.00 | 92 | 1011.4 |
| 20260507081529 | 68 | 245 | 0.0 | 0.0 | 0.00 | 0.00 | 0.00 | 92 | 1011.2 |
| 20260507080804 | 69 | 245 | 0.0 | 0.0 | 0.00 | 0.00 | 0.00 | 91 | 1011.4 |
| 20260507080301 | 69 | 245 | 0.0 | 0.0 | 0.00 | 0.00 | 0.00 | 91 | 1011.4 |
| 20260507080019 | 68 | 245 | 0.0 | 0.0 | 0.00 | 0.00 | 0.00 | 91 | 1011.4 |
| 20260507075800 | 69 | 245 | 0.0 | 0.0 | 0.00 | 0.00 | 0.00 | 91 | 1011.5 |
| 20260507075307 | 69 | 245 | 0.0 | 0.0 | 0.00 | 0.00 | 0.00 | 91 | 1011.5 |
| 20260507074803 | 69 | 245 | 0.0 | 0.0 | 0.00 | 0.00 | 0.00 | 91 | 1011.5 |
| 20260507074504 | 69 | 245 | 0.0 | 0.0 | 0.00 | 0.00 | 0.00 | 91 | 1011.4 |
| 20260507074302 | 69 | 245 | 0.0 | 0.0 | 0.00 | 0.00 | 0.00 | 91 | 1011.5 |
| 20260507073803 | 69 | 245 | 0.0 | 0.0 | 0.00 | 0.00 | 0.00 | 91 | 1011.5 |
| 20260507073339 | 69 | 245 | 0.0 | 0.0 | 0.00 | 0.00 | 0.00 | 91 | 1011.5 |
| 20260507073330 | 69 | 245 | 0.0 | 0.0 | 0.00 | 0.00 | 0.00 | 91 | 1011.5 |
| 20260507073012 | 69 | 245 | 0.0 | 0.0 | 0.00 | 0.00 | 0.00 | 91 | 1011.4 |
| 20260507072552 | 69 | 245 | 0.0 | 0.0 | 0.00 | 0.00 | 0.00 | 91 | 1011.5 |
| 20260507071802 | 70 | 245 | 0.0 | 0.0 | 0.00 | 0.00 | 0.00 | 91 | 1011.5 |
| 20260507071503 | 69 | 245 | 0.0 | 0.0 | 0.00 | 0.00 | 0.00 | 91 | 1011.5 |
| 20260507071303 | 70 | 245 | 0.0 | 0.0 | 0.00 | 0.00 | 0.00 | 91 | 1011.7 |
| 20260507070804 | 70 | 245 | 0.0 | 0.0 | 0.00 | 0.00 | 0.00 | 91 | 1011.7 |
| 20260507070303 | 70 | 245 | 0.0 | 0.0 | 0.00 | 0.00 | 0.00 | 90 | 1011.7 |
| 20260507070009 | 69 | 245 | 0.0 | 0.0 | 0.00 | 0.00 | 0.00 | 90 | 1012.0 |
| 20260507065803 | 70 | 245 | 0.0 | 0.0 | 0.00 | 0.00 | 0.00 | 90 | 1012.1 |
| 20260507065305 | 70 | 245 | 0.0 | 0.0 | 0.00 | 0.00 | 0.00 | 90 | 1012.1 |
| 20260507064804 | 70 | 245 | 0.0 | 0.0 | 0.00 | 0.00 | 0.00 | 90 | 1012.1 |
| 20260507064553 | 70 | 245 | 0.0 | 0.0 | 0.00 | 0.00 | 0.00 | 90 | 1012.1 |
| 20260507064516 | 70 | 245 | 0.0 | 0.0 | 0.00 | 0.00 | 0.00 | 90 | 1012.0 |
| 20260507063803 | 71 | 245 | 0.0 | 0.0 | 0.00 | 0.00 | 0.00 | 90 | 1012.1 |
| 20260507063303 | 71 | 245 | 0.0 | 1.0 | 0.00 | 0.00 | 0.00 | 89 | 1012.1 |
| 20260507063006 | 71 | 245 | 0.0 | 1.0 | 0.00 | 0.00 | 0.00 | 89 | 1012.0 |
| 20260507062804 | 71 | 245 | 0.0 | 1.0 | 0.00 | 0.00 | 0.00 | 89 | 1012.1 |
| 20260507062306 | 71 | 245 | 0.0 | 1.0 | 0.00 | 0.00 | 0.00 | 89 | 1012.1 |
| 20260507061801 | 71 | 245 | 0.0 | 1.0 | 0.00 | 0.00 | 0.00 | 89 | 1012.1 |
| 20260507061555 | 72 | 245 | 0.0 | 2.0 | 0.00 | 0.00 | 0.00 | 89 | 1012.5 |
| 20260507061551 | 71 | 245 | 0.0 | 1.0 | 0.00 | 0.00 | 0.00 | 89 | 1012.4 |
| 20260507061520 | 71 | 245 | 0.0 | 1.0 | 0.00 | 0.00 | 0.00 | 89 | 1012.4 |
| 20260507060801 | 72 | 245 | 1.0 | 3.0 | 0.00 | 0.00 | 0.00 | 89 | 1012.5 |
| 20260507060302 | 72 | 219 | 1.0 | 3.0 | 0.00 | 0.00 | 0.00 | 89 | 1012.5 |
| 20260507060037 | 72 | 234 | 0.0 | 3.0 | 0.00 | 0.00 | 0.00 | 89 | 1012.4 |
| 20260507055803 | 72 | 193 | 0.0 | 1.0 | 0.00 | 0.00 | 0.00 | 88 | 1012.6 |
| 20260507055305 | 73 | 193 | 0.0 | 1.0 | 0.00 | 0.00 | 0.00 | 88 | 1012.6 |
| 20260507054802 | 73 | 193 | 0.0 | 1.0 | 0.00 | 0.00 | 0.00 | 88 | 1012.6 |
| 20260507054602 | 72 | 193 | 0.0 | 1.0 | 0.00 | 0.00 | 0.00 | 88 | 1012.5 |
| 20260507054559 | 73 | 191 | 0.0 | 1.0 | 0.00 | 0.00 | 0.00 | 88 | 1012.7 |
| 20260507054519 | 72 | 193 | 0.0 | 1.0 | 0.00 | 0.00 | 0.00 | 88 | 1012.5 |
| 20260507053802 | 73 | 190 | 0.0 | 0.0 | 0.00 | 0.00 | 0.00 | 87 | 1012.7 |
| 20260507053301 | 73 | 190 | 0.0 | 0.0 | 0.00 | 0.00 | 0.00 | 87 | 1012.7 |
| 20260507053054 | 74 | 191 | 0.0 | 1.0 | 0.00 | 0.00 | 0.00 | 87 | 1013.0 |
| 20260507053016 | 73 | 191 | 0.0 | 0.0 | 0.00 | 0.00 | 0.00 | 87 | 1012.9 |
| 20260507052306 | 74 | 191 | 0.0 | 1.0 | 0.00 | 0.00 | 0.00 | 86 | 1013.0 |
| 20260507051803 | 74 | 175 | 0.0 | 1.0 | 0.00 | 0.00 | 0.00 | 86 | 1013.0 |
| 20260507051552 | 75 | 159 | 0.0 | 0.0 | 0.00 | 0.00 | 0.00 | 85 | 1012.8 |
| 20260507051515 | 74 | 159 | 0.0 | 0.0 | 0.00 | 0.00 | 0.00 | 85 | 1012.6 |
| 20260507050803 | 75 | 159 | 0.0 | 1.0 | 0.00 | 0.00 | 0.00 | 84 | 1012.8 |
| 20260507050304 | 75 | 159 | 0.0 | 1.0 | 0.00 | 0.00 | 0.00 | 84 | 1012.8 |
| 20260507050057 | 76 | 119 | 1.0 | 3.0 | 0.00 | 0.00 | 0.00 | 84 | 1012.6 |
| 20260507050018 | 75 | 137 | 0.0 | 3.0 | 0.00 | 0.00 | 0.00 | 84 | 1012.5 |
| 20260507045306 | 76 | 126 | 2.0 | 4.0 | 0.00 | 0.00 | 0.00 | 85 | 1012.6 |
| 20260507045052 | 76 | 115 | 2.0 | 5.0 | 0.00 | 0.00 | 0.00 | 85 | 1012.6 |
| 20260507044551 | 76 | 119 | 2.0 | 5.0 | 0.00 | 0.00 | 0.00 | 85 | 1012.7 |
| 20260507044515 | 75 | 132 | 2.0 | 5.0 | 0.00 | 0.00 | 0.00 | 85 | 1012.6 |
| 20260507044055 | 76 | 136 | 2.0 | 5.0 | 0.00 | 0.00 | 0.00 | 84 | 1012.7 |
| 20260507043302 | 76 | 123 | 2.0 | 5.0 | 0.00 | 0.00 | 0.00 | 84 | 1012.7 |
| 20260507043007 | 76 | 127 | 2.0 | 3.0 | 0.00 | 0.00 | 0.00 | 84 | 1012.6 |
| 20260507042804 | 76 | 111 | 2.0 | 3.0 | 0.00 | 0.00 | 0.00 | 84 | 1012.7 |
| 20260507042306 | 76 | 104 | 2.0 | 3.0 | 0.00 | 0.00 | 0.00 | 84 | 1012.7 |
| 20260507041801 | 76 | 115 | 2.0 | 6.0 | 0.00 | 0.00 | 0.00 | 84 | 1012.7 |
| 20260507041600 | 76 | 113 | 2.0 | 6.0 | 0.00 | 0.00 | 0.00 | 84 | 1012.6 |
| 20260507041301 | 76 | 112 | 3.0 | 6.0 | 0.00 | 0.00 | 0.00 | 84 | 1013.0 |
| 20260507040800 | 76 | 127 | 2.0 | 5.0 | 0.00 | 0.00 | 0.00 | 83 | 1013.0 |
| 20260507040301 | 77 | 115 | 2.0 | 6.0 | 0.00 | 0.00 | 0.00 | 83 | 1013.0 |
| 20260507040032 | 76 | 102 | 2.0 | 4.0 | 0.00 | 0.00 | 0.00 | 83 | 1012.5 |
| 20260507035803 | 77 | 107 | 3.0 | 6.0 | 0.00 | 0.00 | 0.00 | 83 | 1012.6 |
| 20260507035305 | 77 | 116 | 3.0 | 7.0 | 0.00 | 0.00 | 0.00 | 83 | 1012.6 |
| 20260507034802 | 77 | 125 | 3.0 | 7.0 | 0.00 | 0.00 | 0.00 | 83 | 1012.6 |
| 20260507034558 | 77 | 94 | 3.0 | 6.0 | 0.00 | 0.00 | 0.00 | 83 | 1012.6 |
| 20260507034555 | 76 | 94 | 3.0 | 7.0 | 0.00 | 0.00 | 0.00 | 83 | 1012.4 |
| 20260507034518 | 76 | 102 | 3.0 | 7.0 | 0.00 | 0.00 | 0.00 | 83 | 1012.4 |
| 20260507033801 | 77 | 119 | 3.0 | 7.0 | 0.00 | 0.00 | 0.00 | 84 | 1012.6 |
| 20260507033553 | 77 | 118 | 4.0 | 7.0 | 0.00 | 0.00 | 0.00 | 84 | 1012.6 |
| 20260507033004 | 76 | 98 | 3.0 | 7.0 | 0.00 | 0.00 | 0.00 | 84 | 1012.5 |
| 20260507032802 | 77 | 128 | 4.0 | 7.0 | 0.00 | 0.00 | 0.00 | 84 | 1012.6 |
| 20260507032305 | 77 | 103 | 4.0 | 8.0 | 0.00 | 0.00 | 0.00 | 84 | 1012.6 |
| 20260507031802 | 77 | 123 | 3.0 | 8.0 | 0.00 | 0.00 | 0.00 | 84 | 1012.6 |
| 20260507031503 | 77 | 111 | 4.0 | 8.0 | 0.00 | 0.00 | 0.00 | 83 | 1012.6 |
| 20260507031308 | 77 | 123 | 3.0 | 7.0 | 0.00 | 0.00 | 0.00 | 83 | 1012.8 |
| 20260507030757 | 77 | 118 | 3.0 | 6.0 | 0.00 | 0.00 | 0.00 | 83 | 1012.8 |
| 20260507030528 | 77 | 119 | 3.0 | 7.0 | 0.00 | 0.00 | 0.00 | 82 | 1012.8 |
| 20260507030002 | 77 | 136 | 3.0 | 7.0 | 0.00 | 0.00 | 0.00 | 82 | 1012.6 |
| 20260507025729 | 77 | 129 | 4.0 | 7.0 | 0.00 | 0.00 | 0.00 | 82 | 1012.8 |
| 20260507025228 | 77 | 101 | 4.0 | 7.0 | 0.00 | 0.00 | 0.00 | 82 | 1012.8 |
| 20260507024730 | 77 | 96 | 4.0 | 7.0 | 0.00 | 0.00 | 0.00 | 82 | 1012.8 |
| 20260507024505 | 77 | 120 | 3.0 | 7.0 | 0.00 | 0.00 | 0.00 | 81 | 1012.8 |
| 20260507024228 | 77 | 110 | 4.0 | 7.0 | 0.00 | 0.00 | 0.00 | 82 | 1012.9 |
| 20260507023730 | 77 | 92 | 4.0 | 7.0 | 0.00 | 0.00 | 0.00 | 81 | 1012.9 |
| 20260507023228 | 77 | 81 | 4.0 | 7.0 | 0.00 | 0.00 | 0.00 | 81 | 1012.9 |
| 20260507023003 | 77 | 107 | 3.0 | 8.0 | 0.00 | 0.00 | 0.00 | 81 | 1012.9 |
| 20260507022730 | 77 | 150 | 5.0 | 8.0 | 0.00 | 0.00 | 0.00 | 81 | 1013.0 |
| 20260507022231 | 77 | 111 | 5.0 | 8.0 | 0.00 | 0.00 | 0.00 | 81 | 1013.0 |
| 20260507021729 | 77 | 111 | 4.0 | 8.0 | 0.00 | 0.00 | 0.00 | 81 | 1013.0 |
| 20260507021502 | 77 | 103 | 4.0 | 7.0 | 0.00 | 0.00 | 0.00 | 81 | 1012.9 |
| 20260507021230 | 77 | 115 | 3.0 | 7.0 | 0.00 | 0.00 | 0.00 | 81 | 1013.0 |
| 20260507020729 | 77 | 121 | 3.0 | 6.0 | 0.00 | 0.00 | 0.00 | 81 | 1013.0 |
| 20260507020230 | 77 | 107 | 3.0 | 6.0 | 0.00 | 0.00 | 0.00 | 81 | 1013.0 |
| 20260507020004 | 77 | 106 | 3.0 | 7.0 | 0.00 | 0.00 | 0.00 | 80 | 1012.8 |
| 20260507015729 | 77 | 86 | 3.0 | 7.0 | 0.00 | 0.00 | 0.00 | 80 | 1013.0 |
| 20260507015230 | 77 | 115 | 3.0 | 7.0 | 0.00 | 0.00 | 0.00 | 80 | 1013.0 |
| 20260507014730 | 77 | 135 | 3.0 | 6.0 | 0.00 | 0.00 | 0.00 | 80 | 1013.0 |
| 20260507014602 | 77 | 124 | 2.0 | 6.0 | 0.00 | 0.00 | 0.00 | 80 | 1012.8 |
| 20260507014523 | 77 | 109 | 2.0 | 6.0 | 0.00 | 0.00 | 0.00 | 80 | 1012.8 |
| 20260507013730 | 78 | 122 | 3.0 | 5.0 | 0.00 | 0.00 | 0.00 | 80 | 1012.9 |
| 20260507013232 | 78 | 130 | 3.0 | 6.0 | 0.00 | 0.00 | 0.00 | 80 | 1012.9 |
| 20260507013042 | 77 | 109 | 3.0 | 6.0 | 0.00 | 0.00 | 0.00 | 79 | 1012.7 |
| 20260507012727 | 78 | 107 | 3.0 | 6.0 | 0.00 | 0.00 | 0.00 | 79 | 1012.9 |
| 20260507012511 | 78 | 116 | 3.0 | 6.0 | 0.00 | 0.00 | 0.00 | 79 | 1012.9 |
| 20260507011714 | 78 | 121 | 3.0 | 5.0 | 0.00 | 0.00 | 0.00 | 78 | 1012.9 |
| 20260507011534 | 77 | 113 | 2.0 | 5.0 | 0.00 | 0.00 | 0.00 | 78 | 1012.7 |
| 20260507011202 | 78 | 103 | 3.0 | 5.0 | 0.00 | 0.00 | 0.00 | 78 | 1012.8 |
| 20260507010702 | 78 | 105 | 3.0 | 5.0 | 0.00 | 0.00 | 0.00 | 78 | 1012.8 |
| 20260507010203 | 78 | 123 | 3.0 | 6.0 | 0.00 | 0.00 | 0.00 | 78 | 1012.8 |
| 20260507010011 | 78 | 113 | 3.0 | 7.0 | 0.00 | 0.00 | 0.00 | 77 | 1012.6 |
| 20260507005702 | 78 | 124 | 4.0 | 7.0 | 0.00 | 0.00 | 0.00 | 77 | 1012.8 |
| 20260507005202 | 78 | 121 | 3.0 | 7.0 | 0.00 | 0.00 | 0.00 | 77 | 1012.8 |
| 20260507004704 | 78 | 129 | 3.0 | 5.0 | 0.00 | 0.00 | 0.00 | 76 | 1012.8 |
| 20260507004504 | 78 | 109 | 3.0 | 4.0 | 0.00 | 0.00 | 0.00 | 76 | 1012.5 |
| 20260507004204 | 78 | 120 | 3.0 | 5.0 | 0.00 | 0.00 | 0.00 | 76 | 1012.6 |
| 20260507003702 | 78 | 101 | 3.0 | 7.0 | 0.00 | 0.00 | 0.00 | 76 | 1012.6 |
| 20260507003204 | 79 | 118 | 3.0 | 7.0 | 0.00 | 0.00 | 0.00 | 74 | 1012.6 |
| 20260507003004 | 78 | 111 | 3.0 | 5.0 | 0.00 | 0.00 | 0.00 | 74 | 1012.4 |
| 20260507002702 | 79 | 102 | 3.0 | 8.0 | 0.00 | 0.00 | 0.00 | 74 | 1012.6 |
| 20260507002449 | 79 | 115 | 5.0 | 8.0 | 0.00 | 0.00 | 0.00 | 73 | 1012.6 |
| 20260507001718 | 79 | 119 | 5.0 | 8.0 | 0.00 | 0.00 | 0.00 | 73 | 1012.6 |
| 20260507001619 | 79 | 134 | 4.0 | 8.0 | 0.00 | 0.00 | 0.00 | 73 | 1012.4 |
| 20260507001200 | 79 | 115 | 5.0 | 8.0 | 0.00 | 0.00 | 0.00 | 73 | 1012.6 |
| 20260507000948 | 79 | 115 | 4.0 | 8.0 | 0.00 | 0.00 | 0.00 | 72 | 1012.6 |
| 20260507000201 | 79 | 109 | 4.0 | 8.0 | 0.00 | 0.00 | 0.00 | 72 | 1012.6 |
| 20260507000049 | 79 | 94 | 3.0 | 8.0 | 0.00 | 0.00 | 0.00 | 71 | 1012.4 |
| 20260506235702 | 80 | 116 | 4.0 | 10.0 | 0.00 | 0.00 | 0.00 | 72 | 1012.5 |
| 20260506235203 | 80 | 114 | 5.0 | 10.0 | 0.00 | 0.00 | 0.00 | 70 | 1012.5 |
| 20260506234701 | 80 | 132 | 6.0 | 11.0 | 0.00 | 0.00 | 0.00 | 71 | 1012.5 |
| 20260506234545 | 80 | 110 | 5.0 | 11.0 | 0.00 | 0.00 | 0.00 | 69 | 1012.4 |
| 20260506234201 | 80 | 126 | 8.0 | 15.0 | 0.00 | 0.00 | 0.00 | 68 | 1012.6 |
| 20260506233956 | 80 | 108 | 7.0 | 15.0 | 0.00 | 0.00 | 0.00 | 66 | 1012.6 |
| 20260506233452 | 81 | 101 | 6.0 | 10.0 | 0.00 | 0.00 | 0.00 | 67 | 1012.6 |
| 20260506233049 | 80 | 103 | 6.0 | 10.0 | 0.00 | 0.00 | 0.00 | 67 | 1012.4 |
| 20260506232702 | 81 | 82 | 6.0 | 11.0 | 0.00 | 0.00 | 0.00 | 67 | 1012.6 |
| 20260506232202 | 81 | 88 | 7.0 | 11.0 | 0.00 | 0.00 | 0.00 | 67 | 1012.6 |
| 20260506231701 | 81 | 96 | 8.0 | 13.0 | 0.00 | 0.00 | 0.00 | 64 | 1012.6 |
| 20260506231540 | 81 | 96 | 7.0 | 13.0 | 0.00 | 0.00 | 0.00 | 63 | 1012.5 |
| 20260506231201 | 82 | 123 | 8.0 | 15.0 | 0.00 | 0.00 | 0.00 | 63 | 1012.6 |
| 20260506230701 | 82 | 92 | 8.0 | 15.0 | 0.00 | 0.00 | 0.00 | 63 | 1012.6 |
| 20260506230203 | 82 | 138 | 8.0 | 13.0 | 0.00 | 0.00 | 0.00 | 63 | 1012.6 |
| 20260506230032 | 81 | 126 | 8.0 | 13.0 | 0.00 | 0.00 | 0.00 | 62 | 1012.4 |
| 20260506225702 | 82 | 105 | 8.0 | 13.0 | 0.00 | 0.00 | 0.00 | 63 | 1012.6 |
| 20260506225202 | 82 | 110 | 8.0 | 14.0 | 0.00 | 0.00 | 0.00 | 64 | 1012.6 |
| 20260506224701 | 82 | 122 | 8.0 | 14.0 | 0.00 | 0.00 | 0.00 | 62 | 1012.6 |
| 20260506224527 | 82 | 96 | 8.0 | 14.0 | 0.00 | 0.00 | 0.00 | 64 | 1012.4 |
| 20260506224200 | 83 | 118 | 8.0 | 14.0 | 0.00 | 0.00 | 0.00 | 65 | 1012.5 |
| 20260506224051 | 83 | 117 | 7.0 | 14.0 | 0.00 | 0.00 | 0.00 | 64 | 1012.5 |
| 20260506224045 | 82 | 119 | 8.0 | 14.0 | 0.00 | 0.00 | 0.00 | 64 | 1012.5 |
| 20260506223019 | 82 | 102 | 7.0 | 13.0 | 0.00 | 0.00 | 0.00 | 63 | 1012.4 |
| 20260506222700 | 83 | 80 | 7.0 | 14.0 | 0.00 | 0.00 | 0.00 | 63 | 1012.6 |
| 20260506222448 | 83 | 93 | 8.0 | 13.0 | 0.00 | 0.00 | 0.00 | 65 | 1012.6 |
| 20260506221702 | 83 | 111 | 8.0 | 13.0 | 0.00 | 0.00 | 0.00 | 64 | 1012.6 |
| 20260506221517 | 82 | 92 | 8.0 | 12.0 | 0.00 | 0.00 | 0.00 | 62 | 1012.4 |
| 20260506221201 | 83 | 138 | 8.0 | 14.0 | 0.00 | 0.00 | 0.00 | 62 | 1012.5 |
| 20260506220703 | 83 | 79 | 9.0 | 14.0 | 0.00 | 0.00 | 0.00 | 62 | 1012.5 |
| 20260506220204 | 83 | 92 | 9.0 | 14.0 | 0.00 | 0.00 | 0.00 | 66 | 1012.5 |
| 20260506220003 | 82 | 88 | 9.0 | 13.0 | 0.00 | 0.00 | 0.00 | 65 | 1012.4 |
| 20260506215702 | 83 | 126 | 7.0 | 14.0 | 0.00 | 0.00 | 0.00 | 65 | 1012.6 |
| 20260506215452 | 83 | 82 | 7.0 | 15.0 | 0.00 | 0.00 | 0.00 | 61 | 1012.6 |
| 20260506214704 | 83 | 63 | 8.0 | 15.0 | 0.00 | 0.00 | 0.00 | 66 | 1012.6 |
| 20260506214502 | 83 | 122 | 9.0 | 14.0 | 0.00 | 0.00 | 0.00 | 65 | 1012.4 |
| 20260506214202 | 83 | 115 | 8.0 | 14.0 | 0.00 | 0.00 | 0.00 | 64 | 1012.6 |
| 20260506213703 | 84 | 104 | 8.0 | 14.0 | 0.00 | 0.00 | 0.00 | 64 | 1012.6 |
| 20260506213203 | 84 | 97 | 8.0 | 14.0 | 0.00 | 0.00 | 0.00 | 64 | 1012.6 |
| 20260506213008 | 84 | 86 | 7.0 | 13.0 | 0.00 | 0.00 | 0.00 | 64 | 1012.4 |
| 20260506212704 | 84 | 136 | 7.0 | 13.0 | 0.00 | 0.00 | 0.00 | 61 | 1012.6 |
| 20260506212203 | 84 | 78 | 7.0 | 16.0 | 0.00 | 0.00 | 0.00 | 62 | 1012.6 |
| 20260506211703 | 84 | 108 | 8.0 | 16.0 | 0.00 | 0.00 | 0.00 | 62 | 1012.6 |
| 20260506211505 | 84 | 117 | 8.0 | 16.0 | 0.00 | 0.00 | 0.00 | 61 | 1012.4 |
| 20260506211204 | 84 | 122 | 8.0 | 13.0 | 0.00 | 0.00 | 0.00 | 62 | 1012.6 |
| 20260506210957 | 84 | 94 | 8.0 | 13.0 | 0.00 | 0.00 | 0.00 | 61 | 1012.6 |
| 20260506210204 | 84 | 130 | 9.0 | 16.0 | 0.00 | 0.00 | 0.00 | 59 | 1012.6 |
| 20260506210003 | 84 | 136 | 7.0 | 16.0 | 0.00 | 0.00 | 0.00 | 60 | 1012.4 |
| 20260506205703 | 84 | 114 | 8.0 | 16.0 | 0.00 | 0.00 | 0.00 | 59 | 1012.6 |
| 20260506205203 | 84 | 102 | 7.0 | 13.0 | 0.00 | 0.00 | 0.00 | 60 | 1012.6 |
| 20260506204701 | 84 | 78 | 7.0 | 15.0 | 0.00 | 0.00 | 0.00 | 64 | 1012.6 |
| 20260506204504 | 84 | 107 | 8.0 | 13.0 | 0.00 | 0.00 | 0.00 | 62 | 1012.4 |
| 20260506204206 | 84 | 92 | 8.0 | 15.0 | 0.00 | 0.00 | 0.00 | 63 | 1012.6 |
| 20260506203707 | 84 | 89 | 9.0 | 16.0 | 0.00 | 0.00 | 0.00 | 59 | 1012.6 |
| 20260506203201 | 84 | 116 | 9.0 | 16.0 | 0.00 | 0.00 | 0.00 | 60 | 1012.6 |
| 20260506203049 | 84 | 132 | 9.0 | 13.0 | 0.00 | 0.00 | 0.00 | 62 | 1012.4 |
| 20260506202758 | 84 | 77 | 9.0 | 16.0 | 0.00 | 0.00 | 0.00 | 58 | 1012.6 |
| 20260506202740 | 84 | 114 | 10.0 | 16.0 | 0.00 | 0.00 | 0.00 | 61 | 1012.6 |
| 20260506201701 | 85 | 115 | 9.0 | 15.0 | 0.00 | 0.00 | 0.00 | 61 | 1012.6 |
| 20260506201532 | 84 | 124 | 9.0 | 15.0 | 0.00 | 0.00 | 0.00 | 60 | 1012.6 |
| 20260506201202 | 85 | 98 | 8.0 | 16.0 | 0.00 | 0.00 | 0.00 | 56 | 1012.7 |
| 20260506201000 | 84 | 95 | 9.0 | 16.0 | 0.00 | 0.00 | 0.00 | 60 | 1012.7 |
| 20260506200201 | 85 | 122 | 9.0 | 16.0 | 0.00 | 0.00 | 0.00 | 57 | 1012.7 |
| 20260506200023 | 84 | 113 | 9.0 | 16.0 | 0.00 | 0.00 | 0.00 | 58 | 1012.6 |
| 20260506195701 | 85 | 83 | 8.0 | 16.0 | 0.00 | 0.00 | 0.00 | 58 | 1012.7 |
| 20260506195201 | 85 | 104 | 8.0 | 15.0 | 0.00 | 0.00 | 0.00 | 56 | 1012.7 |
| 20260506194700 | 85 | 90 | 7.0 | 15.0 | 0.00 | 0.00 | 0.00 | 57 | 1012.7 |
| 20260506194506 | 85 | 79 | 8.0 | 14.0 | 0.00 | 0.00 | 0.00 | 57 | 1012.7 |
| 20260506194204 | 85 | 86 | 7.0 | 14.0 | 0.00 | 0.00 | 0.00 | 58 | 1012.8 |
| 20260506193702 | 85 | 128 | 8.0 | 14.0 | 0.00 | 0.00 | 0.00 | 56 | 1012.8 |
| 20260506193203 | 85 | 109 | 8.0 | 13.0 | 0.00 | 0.00 | 0.00 | 56 | 1012.8 |
| 20260506193002 | 85 | 96 | 7.0 | 15.0 | 0.00 | 0.00 | 0.00 | 56 | 1012.9 |
| 20260506192702 | 85 | 90 | 8.0 | 15.0 | 0.00 | 0.00 | 0.00 | 57 | 1013.0 |
| 20260506192202 | 85 | 100 | 8.0 | 15.0 | 0.00 | 0.00 | 0.00 | 53 | 1013.0 |
| 20260506191704 | 85 | 117 | 8.0 | 15.0 | 0.00 | 0.00 | 0.00 | 54 | 1013.0 |
| 20260506191504 | 85 | 94 | 9.0 | 14.0 | 0.00 | 0.00 | 0.00 | 53 | 1013.0 |
| 20260506191204 | 85 | 103 | 8.0 | 17.0 | 0.00 | 0.00 | 0.00 | 54 | 1013.1 |
| 20260506190702 | 85 | 128 | 7.0 | 17.0 | 0.00 | 0.00 | 0.00 | 55 | 1013.1 |
| 20260506190205 | 86 | 119 | 6.0 | 14.0 | 0.00 | 0.00 | 0.00 | 51 | 1013.1 |
| 20260506190006 | 85 | 126 | 6.0 | 11.0 | 0.00 | 0.00 | 0.00 | 53 | 1013.2 |
| 20260506185702 | 85 | 136 | 7.0 | 14.0 | 0.00 | 0.00 | 0.00 | 51 | 1013.4 |
| 20260506185202 | 85 | 100 | 8.0 | 14.0 | 0.00 | 0.00 | 0.00 | 51 | 1013.4 |
| 20260506185043 | 85 | 119 | 7.0 | 13.0 | 0.00 | 0.00 | 0.00 | 53 | 1013.5 |
| 20260506184734 | 85 | 95 | 7.0 | 12.0 | 0.00 | 0.00 | 0.00 | 53 | 1013.4 |
| 20260506183702 | 85 | 63 | 7.0 | 13.0 | 0.00 | 0.00 | 0.00 | 48 | 1013.5 |
| 20260506183205 | 85 | 123 | 7.0 | 12.0 | 0.00 | 0.00 | 0.00 | 55 | 1013.5 |
| 20260506183109 | 85 | 126 | 7.0 | 12.0 | 0.00 | 0.00 | 0.00 | 52 | 1013.4 |
| 20260506182701 | 85 | 107 | 7.0 | 12.0 | 0.00 | 0.00 | 0.00 | 56 | 1013.6 |
| 20260506182202 | 85 | 124 | 7.0 | 13.0 | 0.00 | 0.00 | 0.00 | 55 | 1013.6 |
| 20260506181702 | 85 | 96 | 8.0 | 13.0 | 0.00 | 0.00 | 0.00 | 56 | 1013.6 |
| 20260506181536 | 85 | 90 | 8.0 | 13.0 | 0.00 | 0.00 | 0.00 | 56 | 1013.4 |
| 20260506181203 | 85 | 91 | 8.0 | 13.0 | 0.00 | 0.00 | 0.00 | 60 | 1013.6 |
| 20260506180702 | 85 | 100 | 7.0 | 14.0 | 0.00 | 0.00 | 0.00 | 57 | 1013.6 |
| 20260506180200 | 85 | 138 | 7.0 | 14.0 | 0.00 | 0.00 | 0.00 | 59 | 1013.6 |
| 20260506180037 | 84 | 116 | 5.0 | 14.0 | 0.00 | 0.00 | 0.00 | 59 | 1013.6 |
| 20260506175700 | 85 | 82 | 7.0 | 13.0 | 0.00 | 0.00 | 0.00 | 59 | 1013.7 |
| 20260506175202 | 85 | 111 | 6.0 | 11.0 | 0.00 | 0.00 | 0.00 | 59 | 1013.7 |
| 20260506174707 | 85 | 123 | 6.0 | 13.0 | 0.00 | 0.00 | 0.00 | 59 | 1013.7 |
| 20260506174527 | 85 | 119 | 6.0 | 11.0 | 0.00 | 0.00 | 0.00 | 57 | 1013.6 |
| 20260506174203 | 85 | 109 | 7.0 | 13.0 | 0.00 | 0.00 | 0.00 | 59 | 1013.7 |
| 20260506173703 | 85 | 86 | 7.0 | 13.0 | 0.00 | 0.00 | 0.00 | 56 | 1013.7 |
| 20260506173202 | 85 | 117 | 6.0 | 13.0 | 0.00 | 0.00 | 0.00 | 55 | 1013.7 |
| 20260506173019 | 85 | 120 | 6.0 | 13.0 | 0.00 | 0.00 | 0.00 | 55 | 1013.6 |
| 20260506172702 | 85 | 108 | 6.0 | 11.0 | 0.00 | 0.00 | 0.00 | 56 | 1013.8 |
| 20260506172219 | 85 | 97 | 6.0 | 14.0 | 0.00 | 0.00 | 0.00 | 58 | 1013.8 |
| 20260506171704 | 85 | 109 | 7.0 | 14.0 | 0.00 | 0.00 | 0.00 | 54 | 1013.8 |
| 20260506171505 | 84 | 113 | 5.0 | 13.0 | 0.00 | 0.00 | 0.00 | 59 | 1013.8 |
| 20260506171203 | 85 | 132 | 7.0 | 13.0 | 0.00 | 0.00 | 0.00 | 58 | 1013.9 |
| 20260506170746 | 85 | 122 | 6.0 | 10.0 | 0.00 | 0.00 | 0.00 | 59 | 1013.9 |
| 20260506170734 | 85 | 113 | 6.0 | 12.0 | 0.00 | 0.00 | 0.00 | 58 | 1013.9 |
| 20260506170003 | 84 | 123 | 6.0 | 10.0 | 0.00 | 0.00 | 0.00 | 59 | 1013.9 |
| 20260506165747 | 85 | 127 | 6.0 | 12.0 | 0.00 | 0.00 | 0.00 | 59 | 1014.0 |
| 20260506165736 | 85 | 123 | 6.0 | 10.0 | 0.00 | 0.00 | 0.00 | 58 | 1014.0 |
| 20260506164701 | 84 | 122 | 7.0 | 13.0 | 0.00 | 0.00 | 0.00 | 61 | 1014.0 |
| 20260506164551 | 84 | 104 | 6.0 | 13.0 | 0.00 | 0.00 | 0.00 | 60 | 1013.9 |
| 20260506164202 | 84 | 101 | 8.0 | 13.0 | 0.00 | 0.00 | 0.00 | 59 | 1014.0 |
| 20260506163701 | 85 | 112 | 6.0 | 11.0 | 0.00 | 0.00 | 0.00 | 61 | 1014.0 |
| 20260506163201 | 85 | 94 | 5.0 | 11.0 | 0.00 | 0.00 | 0.00 | 63 | 1014.0 |
| 20260506163044 | 84 | 121 | 3.0 | 11.0 | 0.00 | 0.00 | 0.00 | 63 | 1014.0 |
| 20260506162701 | 85 | 119 | 6.0 | 13.0 | 0.00 | 0.00 | 0.00 | 63 | 1014.1 |
| 20260506162200 | 84 | 91 | 6.0 | 13.0 | 0.00 | 0.00 | 0.00 | 60 | 1014.1 |
| 20260506161702 | 85 | 111 | 5.0 | 11.0 | 0.00 | 0.00 | 0.00 | 63 | 1014.1 |
| 20260506161544 | 84 | 76 | 4.0 | 10.0 | 0.00 | 0.00 | 0.00 | 65 | 1014.0 |
| 20260506161201 | 84 | 97 | 5.0 | 10.0 | 0.00 | 0.00 | 0.00 | 63 | 1014.1 |
| 20260506160701 | 84 | 123 | 4.0 | 8.0 | 0.00 | 0.00 | 0.00 | 63 | 1014.1 |
| 20260506160202 | 84 | 88 | 5.0 | 10.0 | 0.00 | 0.00 | 0.00 | 65 | 1014.1 |
| 20260506160018 | 83 | 138 | 4.0 | 10.0 | 0.00 | 0.00 | 0.00 | 66 | 1014.2 |
| 20260506155702 | 83 | 82 | 6.0 | 10.0 | 0.00 | 0.00 | 0.00 | 65 | 1014.3 |
| 20260506155203 | 83 | 132 | 5.0 | 11.0 | 0.00 | 0.00 | 0.00 | 64 | 1014.3 |
| 20260506154704 | 83 | 140 | 5.0 | 11.0 | 0.00 | 0.00 | 0.00 | 67 | 1014.3 |
| 20260506154504 | 83 | 96 | 3.0 | 10.0 | 0.00 | 0.00 | 0.00 | 67 | 1014.0 |
| 20260506154204 | 83 | 115 | 6.0 | 10.0 | 0.00 | 0.00 | 0.00 | 67 | 1014.1 |
| 20260506153703 | 83 | 89 | 5.0 | 10.0 | 0.00 | 0.00 | 0.00 | 66 | 1014.1 |
| 20260506153202 | 83 | 85 | 5.0 | 10.0 | 0.00 | 0.00 | 0.00 | 69 | 1014.1 |
| 20260506153005 | 82 | 141 | 3.0 | 9.0 | 0.00 | 0.00 | 0.00 | 72 | 1014.0 |
| 20260506152945 | 83 | 129 | 5.0 | 9.0 | 0.00 | 0.00 | 0.00 | 69 | 1014.1 |
| 20260506152202 | 83 | 103 | 6.0 | 10.0 | 0.00 | 0.00 | 0.00 | 71 | 1014.1 |
| 20260506151704 | 82 | 125 | 5.0 | 11.0 | 0.00 | 0.00 | 0.00 | 71 | 1014.1 |
| 20260506151505 | 82 | 123 | 6.0 | 11.0 | 0.00 | 0.00 | 0.00 | 68 | 1014.0 |
| 20260506151203 | 82 | 118 | 4.0 | 11.0 | 0.00 | 0.00 | 0.00 | 75 | 1014.1 |
| 20260506150704 | 82 | 128 | 6.0 | 10.0 | 0.00 | 0.00 | 0.00 | 76 | 1014.1 |
| 20260506150203 | 82 | 69 | 6.0 | 10.0 | 0.00 | 0.00 | 0.00 | 75 | 1014.1 |
| 20260506150005 | 81 | 113 | 5.0 | 10.0 | 0.00 | 0.00 | 0.00 | 77 | 1014.0 |
| 20260506145702 | 82 | 96 | 6.0 | 10.0 | 0.00 | 0.00 | 0.00 | 76 | 1014.1 |
| 20260506145204 | 82 | 83 | 5.0 | 10.0 | 0.00 | 0.00 | 0.00 | 75 | 1014.1 |
| 20260506144704 | 81 | 97 | 5.0 | 10.0 | 0.00 | 0.00 | 0.00 | 77 | 1014.1 |
| 20260506144504 | 81 | 89 | 6.0 | 10.0 | 0.00 | 0.00 | 0.00 | 76 | 1013.9 |
| 20260506144202 | 81 | 111 | 5.0 | 10.0 | 0.00 | 0.00 | 0.00 | 77 | 1014.0 |
| 20260506143947 | 81 | 122 | 5.0 | 10.0 | 0.00 | 0.00 | 0.00 | 78 | 1014.0 |
| 20260506143202 | 81 | 155 | 5.0 | 11.0 | 0.00 | 0.00 | 0.00 | 79 | 1014.0 |
| 20260506143003 | 80 | 76 | 5.0 | 11.0 | 0.00 | 0.00 | 0.00 | 77 | 1014.0 |
| 20260506142703 | 80 | 107 | 6.0 | 11.0 | 0.00 | 0.00 | 0.00 | 78 | 1014.1 |
| 20260506142203 | 80 | 109 | 5.0 | 9.0 | 0.00 | 0.00 | 0.00 | 81 | 1014.1 |
| 20260506142040 | 80 | 90 | 3.0 | 7.0 | 0.00 | 0.00 | 0.00 | 82 | 1013.9 |
| 20260506142035 | 80 | 127 | 3.0 | 8.0 | 0.00 | 0.00 | 0.00 | 80 | 1014.1 |
| 20260506140702 | 80 | 121 | 4.0 | 8.0 | 0.00 | 0.00 | 0.00 | 83 | 1013.9 |
| 20260506140202 | 79 | 109 | 5.0 | 9.0 | 0.00 | 0.00 | 0.00 | 83 | 1013.9 |
| 20260506140005 | 79 | 146 | 4.0 | 10.0 | 0.00 | 0.00 | 0.00 | 83 | 1013.9 |
| 20260506135702 | 79 | 128 | 5.0 | 10.0 | 0.00 | 0.00 | 0.00 | 83 | 1014.0 |
| 20260506135202 | 79 | 80 | 5.0 | 10.0 | 0.00 | 0.00 | 0.00 | 84 | 1014.0 |
| 20260506134702 | 79 | 99 | 5.0 | 8.0 | 0.00 | 0.00 | 0.00 | 85 | 1014.0 |
| 20260506134519 | 78 | 103 | 4.0 | 11.0 | 0.00 | 0.00 | 0.00 | 85 | 1013.5 |
| 20260506134447 | 79 | 86 | 6.0 | 11.0 | 0.00 | 0.00 | 0.00 | 85 | 1013.6 |
| 20260506133703 | 78 | 116 | 7.0 | 11.0 | 0.00 | 0.00 | 0.00 | 85 | 1013.6 |
| 20260506133203 | 78 | 105 | 6.0 | 9.0 | 0.00 | 0.00 | 0.00 | 85 | 1013.6 |
| 20260506133004 | 78 | 121 | 6.0 | 9.0 | 0.00 | 0.00 | 0.00 | 85 | 1013.5 |
| 20260506132702 | 78 | 141 | 6.0 | 10.0 | 0.00 | 0.00 | 0.00 | 86 | 1013.6 |
| 20260506132201 | 78 | 98 | 7.0 | 10.0 | 0.00 | 0.00 | 0.00 | 86 | 1013.6 |
| 20260506131703 | 78 | 119 | 6.0 | 10.0 | 0.00 | 0.00 | 0.00 | 86 | 1013.6 |
| 20260506131610 | 77 | 113 | 6.0 | 10.0 | 0.00 | 0.00 | 0.00 | 86 | 1013.5 |
| 20260506131202 | 78 | 130 | 5.0 | 8.0 | 0.00 | 0.00 | 0.00 | 87 | 1013.6 |
| 20260506130701 | 78 | 105 | 5.0 | 8.0 | 0.00 | 0.00 | 0.00 | 88 | 1013.6 |
| 20260506130202 | 77 | 107 | 4.0 | 8.0 | 0.00 | 0.00 | 0.00 | 89 | 1013.6 |
| 20260506130033 | 77 | 138 | 4.0 | 8.0 | 0.00 | 0.00 | 0.00 | 89 | 1013.4 |
| 20260506125701 | 77 | 89 | 3.0 | 8.0 | 0.00 | 0.00 | 0.00 | 89 | 1013.5 |
| 20260506125202 | 76 | 128 | 2.0 | 5.0 | 0.00 | 0.00 | 0.00 | 90 | 1013.5 |
| 20260506124701 | 76 | 109 | 2.0 | 3.0 | 0.00 | 0.00 | 0.00 | 91 | 1013.5 |
| 20260506124533 | 75 | 79 | 1.0 | 3.0 | 0.00 | 0.00 | 0.00 | 91 | 1013.4 |
| 20260506124202 | 75 | 97 | 2.0 | 3.0 | 0.00 | 0.00 | 0.00 | 91 | 1013.5 |
| 20260506123701 | 75 | 105 | 2.0 | 3.0 | 0.00 | 0.00 | 0.00 | 92 | 1013.5 |
| 20260506123203 | 74 | 90 | 1.0 | 3.0 | 0.00 | 0.00 | 0.00 | 93 | 1013.5 |
| 20260506123003 | 74 | 90 | 1.0 | 3.0 | 0.00 | 0.00 | 0.00 | 93 | 1013.2 |
| 20260506122953 | 74 | 103 | 0.0 | 2.0 | 0.00 | 0.00 | 0.00 | 94 | 1013.3 |
| 20260506122204 | 73 | 100 | 0.0 | 0.0 | 0.00 | 0.00 | 0.00 | 94 | 1013.3 |
| 20260506121703 | 73 | 100 | 0.0 | 0.0 | 0.00 | 0.00 | 0.00 | 94 | 1013.3 |
| 20260506121508 | 72 | 100 | 0.0 | 0.0 | 0.00 | 0.00 | 0.00 | 94 | 1013.0 |
| 20260506121204 | 72 | 100 | 0.0 | 0.0 | 0.00 | 0.00 | 0.00 | 94 | 1013.2 |
| 20260506120701 | 72 | 100 | 0.0 | 0.0 | 0.00 | 0.00 | 0.00 | 94 | 1013.2 |
| 20260506120202 | 71 | 100 | 0.0 | 0.0 | 0.00 | 0.00 | 0.00 | 94 | 1013.2 |
| 20260506120032 | 71 | 100 | 0.0 | 0.0 | 0.00 | 0.00 | 0.00 | 94 | 1013.0 |
| 20260506115702 | 71 | 100 | 0.0 | 0.0 | 0.00 | 0.00 | 0.00 | 94 | 1013.1 |
| 20260506115203 | 70 | 100 | 0.0 | 0.0 | 0.00 | 0.00 | 0.00 | 94 | 1013.1 |
| 20260506114702 | 70 | 100 | 0.0 | 0.0 | 0.00 | 0.00 | 0.00 | 94 | 1013.1 |
| 20260506114540 | 69 | 100 | 0.0 | 0.0 | 0.00 | 0.00 | 0.00 | 94 | 1013.0 |
| 20260506114201 | 69 | 100 | 0.0 | 0.0 | 0.00 | 0.00 | 0.00 | 94 | 1013.2 |
| 20260506113702 | 69 | 100 | 0.0 | 0.0 | 0.00 | 0.00 | 0.00 | 94 | 1013.2 |
| 20260506113202 | 68 | 100 | 0.0 | 0.0 | 0.00 | 0.00 | 0.00 | 94 | 1013.2 |
| 20260506113006 | 68 | 100 | 0.0 | 0.0 | 0.00 | 0.00 | 0.00 | 94 | 1013.0 |
| 20260506112954 | 68 | 100 | 0.0 | 0.0 | 0.00 | 0.00 | 0.00 | 94 | 1013.1 |
| 20260506112201 | 68 | 100 | 0.0 | 0.0 | 0.00 | 0.00 | 0.00 | 94 | 1013.1 |
| 20260506111957 | 68 | 100 | 0.0 | 0.0 | 0.00 | 0.00 | 0.00 | 94 | 1013.1 |
| 20260506111557 | 67 | 100 | 0.0 | 0.0 | 0.00 | 0.00 | 0.00 | 94 | 1013.0 |
| 20260506111200 | 68 | 100 | 0.0 | 0.0 | 0.00 | 0.00 | 0.00 | 94 | 1013.1 |
| 20260506110702 | 67 | 100 | 0.0 | 0.0 | 0.00 | 0.00 | 0.00 | 94 | 1013.1 |
| 20260506110201 | 67 | 100 | 0.0 | 0.0 | 0.00 | 0.00 | 0.00 | 94 | 1013.1 |
| 20260506110032 | 67 | 100 | 0.0 | 0.0 | 0.00 | 0.00 | 0.00 | 94 | 1012.5 |
| 20260506105701 | 67 | 100 | 0.0 | 0.0 | 0.00 | 0.00 | 0.00 | 94 | 1012.6 |
| 20260506105202 | 67 | 100 | 0.0 | 0.0 | 0.00 | 0.00 | 0.00 | 94 | 1012.6 |
| 20260506104704 | 67 | 100 | 0.0 | 0.0 | 0.00 | 0.00 | 0.00 | 94 | 1012.6 |
| 20260506104521 | 67 | 100 | 0.0 | 0.0 | 0.00 | 0.00 | 0.00 | 94 | 1012.3 |
| 20260506104202 | 67 | 100 | 0.0 | 0.0 | 0.00 | 0.00 | 0.00 | 94 | 1012.5 |
| 20260506103702 | 67 | 100 | 0.0 | 0.0 | 0.00 | 0.00 | 0.00 | 94 | 1012.5 |
| 20260506103204 | 67 | 100 | 0.0 | 0.0 | 0.00 | 0.00 | 0.00 | 94 | 1012.5 |
| 20260506103018 | 67 | 100 | 0.0 | 0.0 | 0.00 | 0.00 | 0.00 | 93 | 1012.4 |
| 20260506102704 | 67 | 100 | 0.0 | 0.0 | 0.00 | 0.00 | 0.00 | 93 | 1012.5 |
| 20260506102202 | 67 | 100 | 0.0 | 0.0 | 0.00 | 0.00 | 0.00 | 93 | 1012.5 |
| 20260506101702 | 68 | 100 | 0.0 | 0.0 | 0.00 | 0.00 | 0.00 | 93 | 1012.5 |